Regional Weather Roundup
Issued by NWS

Home | Current Version | Previous Version | Graphics & Text | Print | Product List | Glossary On
Versions: 1 2 3 4 5 6 7 8 9 10 11 12 13 14 15 16 17 18 19 20 21 22 23 24 25 26 27 28 29 30 31 32 33 34 35 36 37 38 39 40 41 42 43 44 45 46 47 48 49 50
000
ASUS43 KOAX 282202
RWRNE

WEATHER ROUNDUP FOR NEBRASKA
NATIONAL WEATHER SERVICE OMAHA NE
400 PM CST SUN DEC 28 2014

NOTES: SATELLITE DATA IS BEING USED TO AUGMENT CLOUD COVER ABOVE
       12000 FEET.
       "FAIR" INDICATES FEW OR NO CLOUDS BELOW 12,000 FEET WITH NO
       SIGNIFICANT WEATHER AND/OR OBSTRUCTIONS TO VISIBILITY.

  * THESE STATIONS DO NOT REPORT WEATHER SUCH AS RAIN...SNOW OR FOG.

NEZ001>004-019>022-054>056-282300-
NEBRASKA PANHANDLE

CITY           SKY/WX    TMP DP  RH WIND       PRES   REMARKS
SCOTTSBLUFF    PTSUNNY   27  21  78 SE7       29.89R WCI  19
ALLIANCE       LGT SNOW  27  24  89 CALM      29.90R FOG
CHADRON        LGT SNOW  25  22  88 CALM      29.93R FOG
KIMBALL        SUNNY     28  15  57 CALM      29.84S
SIDNEY         MOSUNNY   28  12  51 SW7       29.88S WCI  21
$$

NEZ057>060-069>072-079>082-282300-
SOUTHWEST NEBRASKA

CITY           SKY/WX    TMP DP  RH WIND       PRES   REMARKS
NORTH PLATTE   CLOUDY    25  17  72 E8        29.97S WCI  16
IMPERIAL       PTSUNNY   28  16  60 E5        29.94S WCI  23
LEXINGTON      CLOUDY    28  19  69 CALM      30.02R
MCCOOK         CLOUDY    27  17  66 CALM      29.99R
OGALLALA       CLOUDY    25  17  72 SW5       29.95S WCI  19
$$

NEZ005>010-023>029-035>040-094-282300-
NORTH CENTRAL NEBRASKA

CITY           SKY/WX    TMP DP  RH WIND       PRES   REMARKS
VALENTINE      CLOUDY    25  14  63 E6        30.00R WCI  18
AINSWORTH      CLOUDY    22  15  75 E5        30.00S WCI  16
BROKEN BOW     CLOUDY    28  18  66 E5        30.01R WCI  23
ORD            CLOUDY    24  16  71 S5        30.05R WCI  18
$$

NEZ041-046>049-061>064-073>077-083>087-282300-
SOUTH CENTRAL NEBRASKA

CITY           SKY/WX    TMP DP  RH WIND       PRES   REMARKS
GRAND ISLAND   PTSUNNY   26  17  68 N6        30.07R WCI  19
AURORA         CLOUDY    27  20  75 NE3       30.06R
HASTINGS       CLOUDY    29  18  63 NE3       30.04R
HEBRON         CLOUDY    36  21  54 CALM      30.07S
HOLDREGE       CLOUDY    26  16  66 CALM      30.02R
KEARNEY *      CLOUDY    27  18  69 NE3       30.04R
YORK           MOCLDY    28  19  69 CALM      30.07S
$$

NEZ011>018-030>034-042>045-282300-
NORTHEAST NEBRASKA

CITY           SKY/WX    TMP DP  RH WIND       PRES   REMARKS
NORFOLK        CLOUDY    24  16  71 NE6       30.09S WCI  17
ALBION         CLOUDY    24  16  69 NE3       30.08R
BLAIR          PTCLDY    31  22  69 N5        30.10R WCI  26
COLUMBUS *     CLOUDY    25  14  63 NE5       30.11S WCI  19
FREMONT        MOCLDY    28  18  68 CALM      30.13R
TEKAMAH        MOCLDY    26  18  71 N7        30.14R WCI  18
WAYNE          MOCLDY    22  16  76 N5        30.13R WCI  16
$$

NEZ050>053-065>068-078-088>093-282300-
SOUTHEAST NEBRASKA

CITY           SKY/WX    TMP DP  RH WIND       PRES   REMARKS
LINCOLN        PTCLDY    34  19  54 CALM      30.11S
OMAHA EPPLEY   CLOUDY    33  20  58 SE6       30.13R WCI  28
BEATRICE       PTCLDY    38  23  54 SW6       30.08S WCI  33
FALLS CITY     CLEAR     40  22  48 S6        30.11S
NEBRASKA CITY  PTCLDY    37  17  43 CALM      30.10S
$$

NEZ044-045-051>053-067-282300-
OMAHA AREA

CITY           SKY/WX    TMP DP  RH WIND       PRES   REMARKS
OMAHA EPPLEY   CLOUDY    33  20  58 SE6       30.13R WCI  28
BLAIR          PTCLDY    31  22  69 N5        30.10R WCI  26
FREMONT        MOCLDY    28  18  68 CALM      30.13R
MILLARD        PTCLDY    33  20  56 CALM      30.12R
OFFUTT AFB     PTCLDY    34  21  59 CALM      30.11S
WAHOO          FAIR      30  19  63 CALM      30.11R
$$


USA.gov is the U.S. government's official web portal to all federal, state and local government web resources and services.